Montreal Mirabel, Quebec

12:23 AM EST on November 19, 2017 (GMT -0500)
Montreal Mirabel

Weather History for CYMX - April, 2014

Change the Weather History Date:

Wednesday, April 16, 2014

  Actual Average Record
Temperature  
Mean Temperature 24 °F -  
Max Temperature 32 °F 51 °F 82 °F (2002)
Min Temperature 17 °F 31 °F 17 °F (2014)
Degree Days  
Heating Degree Days 40    
Moisture  
Dew Point 7 °F    
Average Humidity 49    
Maximum Humidity 68    
Minimum Humidity 34    
Precipitation  
Precipitation 0.00 in - - ()
Sea Level Pressure  
Sea Level Pressure 30.35 in    
Wind  
Wind Speed 9 mph ()    
Max Wind Speed 16 mph    
Max Gust Speed 30 mph    
Averages and records for this station are not official NWS values.
T = Trace of Precipitation, MM = Missing Value Source: Averaged Metar Reports

Daily Weather History Graph

Daily Weather History Graph

Search for Another Location

Airport or City:

Trip Planner

Search our weather history database for the weather conditions in past years. The results will help you decide how hot, cold, wet, or windy it might be!

Date:

Astronomy

Apr. 16, 2014 Rise Set
Actual Time 6:08 AM EDT 7:43 PM EDT
Civil Twilight 5:37 AM EDT 8:15 PM EDT
Nautical Twilight 4:59 AM EDT 8:53 PM EDT
Astronomical Twilight 4:19 AM EDT 9:34 PM EDT
Moon 9:29 PM EDT (4/16) 6:51 AM EDT (4/16)
Length of Visible Light 14h 37m
Length of Day
13h 35m
Full, 98% of the Moon is Illuminated
Apr 16
Full
Apr 22
Last Quarter
Apr 29
New
May 6
First Quarter
May 14
Full

Hourly Weather History & Observations

Time (EDT) Temp. Windchill Dew Point Humidity Pressure Visibility Wind Dir Wind Speed Gust Speed Precip Events Conditions
12:00 AM 23.0 °F 12.4 °F 14.0 °F 68% 29.98 in 25.0 mi West 10.4 mph 21.9 mph N/A Snow Light Snow
1:00 AM 21.2 °F 10.1 °F 10.4 °F 63% 29.98 in 25.0 mi West 10.4 mph 23.0 mph N/A   Overcast
2:00 AM 21.2 °F 8.9 °F 10.4 °F 63% 30.03 in 25.0 mi WNW 12.7 mph 23.0 mph N/A   Mostly Cloudy
3:00 AM 19.4 °F 5.0 °F 6.8 °F 58% 30.06 in 25.0 mi NW 16.1 mph 26.5 mph N/A   Mostly Cloudy
4:00 AM 19.4 °F 7.9 °F 5.0 °F 54% 30.10 in 25.0 mi WNW 10.4 mph 20.7 mph N/A   Mostly Cloudy
5:00 AM 17.6 °F 7.3 °F 5.0 °F 58% 30.12 in 25.0 mi WNW 8.1 mph 19.6 mph N/A   Scattered Clouds
6:00 AM 17.6 °F 8.2 °F 5.0 °F 58% 30.19 in 45.0 mi WNW 6.9 mph 20.7 mph N/A   Partly Cloudy
7:00 AM 17.6 °F 8.2 °F 3.2 °F 53% 30.26 in 45.0 mi NW 6.9 mph - N/A   Partly Cloudy
8:00 AM 17.6 °F 5.7 °F 3.2 °F 53% 30.31 in 25.0 mi NW 10.4 mph 17.3 mph N/A   Partly Cloudy
9:00 AM 19.4 °F 6.6 °F 1.4 °F 46% 30.37 in 45.0 mi NW 12.7 mph 18.4 mph N/A   Partly Cloudy
10:00 AM 21.2 °F 10.9 °F 1.4 °F 42% 30.40 in 45.0 mi WNW 9.2 mph - N/A   Partly Cloudy
11:00 AM 23.0 °F 14.7 °F 3.2 °F 43% 30.43 in 45.0 mi West 6.9 mph - N/A   Partly Cloudy
12:00 PM 26.6 °F 14.3 °F 5.0 °F 40% 30.43 in 45.0 mi WNW 16.1 mph 29.9 mph N/A   Partly Cloudy
1:00 PM 28.4 °F 19.7 °F 5.0 °F 37% 30.45 in 45.0 mi West 9.2 mph 19.6 mph N/A   Partly Cloudy
2:00 PM 30.2 °F 19.8 °F 5.0 °F 34% 30.46 in 45.0 mi NW 13.8 mph 20.7 mph N/A   Partly Cloudy
3:00 PM 32.0 °F 23.0 °F 6.8 °F 35% 30.48 in 45.0 mi West 11.5 mph 18.4 mph N/A   Scattered Clouds
4:00 PM 32.0 °F 23.6 °F 8.6 °F 38% 30.49 in 45.0 mi WSW 10.4 mph 18.4 mph N/A   Scattered Clouds
5:00 PM 32.0 °F 21.2 °F 8.6 °F 38% 30.49 in 45.0 mi SW 16.1 mph - N/A   Scattered Clouds
6:00 PM 32.0 °F 23.0 °F 10.4 °F 41% 30.52 in 45.0 mi WSW 11.5 mph 18.4 mph N/A   Partly Cloudy
7:00 PM 30.2 °F 21.9 °F 10.4 °F 44% 30.54 in 45.0 mi WSW 9.2 mph - N/A   Partly Cloudy
8:00 PM 30.2 °F 24.3 °F 10.4 °F 44% 30.56 in 25.0 mi West 5.8 mph - N/A   Partly Cloudy
9:00 PM 28.4 °F 23.3 °F 10.4 °F 47% 30.58 in 25.0 mi SSW 4.6 mph - N/A   Partly Cloudy
10:00 PM 24.8 °F 16.9 °F 12.2 °F 59% 30.61 in 25.0 mi SSW 6.9 mph - N/A   Partly Cloudy
11:00 PM 26.6 °F 19.1 °F 14.0 °F 59% 30.62 in 25.0 mi South 6.9 mph - N/A   Partly Cloudy